Tracking 19969 objects as of 13-Nov-2019
Live streaming from Space Station
objects crossing your sky now
Track the group of recently launched Starlink satellites

ICON

Track ICON now!
10-day predictions


NORAD ID: 44628
Int'l Code: 2019-068A
Perigee: 586.5 km
Apogee: 613.7 km
Inclination: 27.0 °
Period: 96.5 minutes
Semi major axis: 6971 km
RCS: Unknown
Launch date: October 11, 2019
Source: United States (US)
Launch site: Pegasus launched from Eastern Range Air Space (ERAS)
aabbcc
Your satellite tracking list
Your tracking list is empty




NASA's NSSDC Master Catalog

Two Line Element Set (TLE):
1 44628U 19068A   19316.51650490  .00000394  00000-0  18580-4 0  9990
2 44628  26.9912  15.1529 0019491 122.8228 237.4224 14.91594766  4849
Source of the keplerian elements: AFSPC